Location: Gülübeli Geçidi
(36.8411°N, 29.7411°E)
Time: 08:21:11
(UTC+00:00)

Daily predictions for brighter satellites

Satellite Brightness Start Highest point End
(mag) Time Altitude Azimuth Time Altitude Azimuth Time Altitude Azimuth
Cosmos 1697 Rocket 2.9 17:27:10 10° NNW 17:32:47 78° WSW 17:38:21 10° SSE
Milstar 3 3.5 17:28:05 10° WSW 17:34:15 40° S 17:41:21 10° ESE
ASTEX 1 3.5 17:29:40 10° SSE 17:34:30 58° E 17:39:22 10° N
ATLAS 3B R/B 3.0 17:32:29 10° NNW 17:40:11 89° WSW 17:47:19 10° SSE
Sich 1 Rocket 3.5 17:36:38 10° S 17:40:59 88° E 17:45:22 10° N
Cosmos 1607 4.2 17:35:29 10° SW 17:41:35 75° WNW 17:47:49 10° NNE
ODIN 4.4 17:39:06 10° SSE 17:42:00 82° E 17:44:56 10° N
SL-4 R/B 3.9 17:42:52 10° W 17:45:47 21° SW 17:48:45 10° S
Cosmos 1536 Rocket 3.9 17:43:40 10° NNW 17:48:00 67° W 17:52:22 10° S
Meteor 1-27 4.3 17:42:30 10° S 17:48:01 57° E 17:53:30 10° NNE
SL-16 R/B 4.2 17:46:28 10° NNE 17:49:07 13° NE 17:51:45 10° E
ERS-1 Rocket 3.5 17:44:44 10° SE 17:49:22 40° ENE 17:54:02 10° N
IRAS Rocket 4.5 17:44:26 10° SE 17:49:44 53° ENE 17:55:03 10° N
Cosmos 1782 2.9 17:47:33 10° SSE 17:50:52 42° E 17:54:12 10° NNE
Cosmos 1459 Rocket 4.1 17:47:14 10° S 17:53:29 85° W 17:59:39 10° N
Resurs 01 Rocket 4.2 17:51:51 10° SW 17:55:05 20° W 17:58:20 10° NW
Okean 2 Rocket 4.5 17:54:44 10° SSW 17:58:59 42° W 18:03:15 10° N
COSMOS 2406 3.5 17:55:13 10° S 18:00:37 45° ESE 18:06:03 10° NE
CSL-04 Rocket 3.9 17:57:24 10° S 18:02:53 76° WSW 18:08:20 10° NNW
Cosmos 1802 Rocket 4.0 17:56:49 10° S 18:03:00 85° E 18:09:10 10° N
Cosmos 1980 Rocket 2.2 17:58:27 10° NNW 18:04:10 82° ENE 18:09:24 12° SSE
CZ-4B R/B 3.9 18:02:00 10° S 18:06:00 83° WSW 18:10:03 10° NNW
Cosmos 2228 3.0 18:02:11 10° S 18:06:12 56° E 18:10:13 10° NNE
CZ-4 R/B 1.0 18:02:58 10° SSE 18:06:35 89° W 18:10:13 10° NNW
Cosmos 1992 Rocket 4.0 18:01:55 10° S 18:07:01 61° ESE 18:12:09 10° NNE
Cosmos 1455 Rocket 3.2 18:05:46 10° S 18:10:10 76° W 18:14:34 10° N
BREEZE-M DEB (TANK) 4.0 18:07:12 10° NW 18:10:14 46° NE 18:16:16 15° ESE
Terra 1.9 18:07:08 14° SSE 18:10:58 56° ENE 18:15:35 10° N
USA 305 2.5 18:07:26 10° NW 18:11:32 77° SW 18:13:40 23° SE
USA 186 3.8 18:12:43 11° ENE 18:12:43 11° ENE 18:13:32 10° NE
SL-08 R/B 3.5 18:08:03 10° NNE 18:12:41 50° E 18:17:12 10° S
NOSS 3-3 (A) 4.2 18:08:24 10° SW 18:13:18 60° NW 18:19:00 10° NNE
Cosmos 1461 2.4 18:09:48 10° SSW 18:13:28 69° ESE 18:17:09 10° NE
Cosmos 2084 Rocket 3.8 18:10:20 10° NNW 18:14:26 49° NE 18:16:51 22° ESE
Okean O Rocket 2.7 18:15:17 20° ESE 18:17:07 27° ENE 18:20:43 10° NNE
Cosmos 1892 Rocket 3.4 18:13:29 10° N 18:17:48 83° E 18:21:21 15° S
Cosmos 2333 Rocket 3.8 18:15:22 10° N 18:19:34 21° NE 18:22:28 15° E
SKYMED 3 4.2 18:15:36 10° NNE 18:19:34 75° ESE 18:23:32 10° S
Cosmos 1743 2.1 18:17:20 10° N 18:20:21 79° W 18:22:13 21° S
Delta 2 Rocket 2.4 18:17:16 10° W 18:20:24 70° S 18:21:37 32° ESE
Cosmos 909 Rocket 4.3 18:14:07 10° SW 18:20:36 74° WNW 18:26:56 10° NNE
Cosmos 1544 Rocket 4.2 18:22:13 24° SE 18:24:01 34° E 18:27:56 10° NNE
CZ-4B DEB 4.3 18:19:24 10° S 18:24:49 79° WSW 18:30:23 10° NNW
Cosmos 2233 Rocket 3.9 18:20:37 10° S 18:26:49 81° E 18:32:59 10° N
CZ-4B R/B 3.2 18:23:29 17° SSE 18:27:59 78° ENE 18:33:37 10° N
Cosmos 2360 Rocket 4.2 18:26:41 10° NNE 18:29:40 14° NE 18:32:15 11° E
Cosmos 1437 Rocket 3.3 18:29:31 30° E 18:29:43 30° E 18:32:53 10° NNE
BREEZE-M DEB (TANK) 3.7 18:31:00 10° WNW 18:33:46 44° SW 18:36:42 23° SSE
BREEZE-M DEB (TANK) 3.4 18:29:36 10° WSW 18:36:57 65° NW 18:39:35 10° NE
Okean-O 3.0 18:37:33 32° SE 18:39:05 47° ENE 18:43:16 10° N
Helios 1A Rocket 4.2 18:36:49 10° N 18:39:37 30° WNW 18:42:25 10° SW
Cosmos 2219 Rocket 4.4 18:40:40 10° NNE 18:42:16 11° NE 18:43:50 10° ENE
GEOS 3 Rocket 3.7 18:41:51 28° SSE 18:44:46 82° WSW 18:50:09 10° NW
USA 215 4.4 18:42:24 13° S 18:47:21 32° SW 18:53:06 10° WNW
ADEOS 3.6 18:44:23 22° S 18:47:48 76° WSW 18:53:02 10° NNW
Cosmos 1758 Rocket 3.9 18:43:37 10° N 18:47:53 47° E 18:48:50 40° ESE
Gbstr 26 Del rocket 3.7 18:47:25 10° WNW 18:52:06 45° SW 18:53:24 34° S
Cosmos 220 Rocket 3.6 18:56:12 41° S 18:57:31 79° ESE 19:01:36 10° NNE
Cosmos 2082 Rocket 4.4 18:56:25 10° WSW 19:01:07 26° WNW 19:05:50 10° N
Cosmos 2322 Rocket 3.4 18:57:46 10° N 19:02:34 28° ENE 19:04:02 25° E
Tsikada Rocket 4.2 18:58:28 10° NNW 19:04:34 67° W 19:08:37 22° S
Cosmos 2237 4.4 19:01:19 10° NNW 19:07:01 68° WSW 19:09:28 35° S
DELTA 2 R/B (1) 3.7 19:04:50 10° WNW 19:10:24 70° N 19:12:59 32° E
Cosmos 2369 4.3 19:05:56 10° NNW 19:11:29 53° WSW 19:14:07 30° SSW
Cosmos 1602 Rocket 3.9 19:07:40 10° N 19:11:44 47° ENE 19:11:44 47° ENE
CZ-4B R/B 3.6 19:15:18 34° NNE 19:15:18 34° NNE 19:17:39 10° N
Cosmos 2098 Rocket 3.2 19:16:48 61° ESE 19:17:01 62° E 19:21:20 10° NNE
Ariane Rocket 3.3 19:18:58 46° E 19:19:28 48° ENE 19:24:19 10° N
Cosmos 2151 2.8 19:18:55 10° N 19:23:01 83° W 19:23:01 83° W
Spot 2 Rocket 4.1 19:22:56 33° SSW 19:24:47 50° W 19:29:40 10° NNW
Cosmos 1626 Rocket 4.2 19:23:40 10° NNW 19:27:55 51° W 19:28:45 44° SW
SPOT 3 Rocket 3.4 19:28:51 66° SE 19:29:33 81° ENE 19:34:42 10° N
Cosmos 2278 3.7 19:24:12 10° NNW 19:29:53 66° ENE 19:30:44 58° ESE
Cosmos 1763 Rocket 3.5 19:31:03 62° E 19:31:03 62° E 19:36:10 10° NNE
SL-16 R/B 2.1 19:28:15 10° NNW 19:33:57 88° WSW 19:34:53 64° SSE
Meteor 1-5 Rocket 4.3 19:29:13 10° N 19:34:58 61° E 19:35:37 57° ESE
Cosmos 1464 Rocket 3.8 19:34:03 54° S 19:35:32 80° E 19:41:43 10° N
Cosmos 1606 Rocket 3.8 19:40:19 61° NNE 19:40:19 61° NNE 19:43:55 10° N
USA 186 4.5 19:42:50 14° WNW 19:42:50 14° WNW 19:43:39 10° NW
CZ-4B R/B 3.2 19:43:25 86° NNE 19:43:25 86° NNE 19:48:09 10° NNW
Terra 4.4 19:46:50 10° WSW 19:48:48 12° W 19:50:47 10° WNW
Okean O Rocket 3.4 19:52:31 21° WSW 19:53:13 22° W 19:56:36 10° NW
IRS-P2 Rocket 4.5 19:53:48 79° ENE 19:53:48 79° ENE 19:59:00 10° N
Cosmos 1428 Rocket 4.3 19:50:56 10° N 19:57:08 74° E 19:57:31 72° ESE
Cosmos 1777 Rocket 4.0 19:58:22 10° NNW 20:03:12 76° NW 20:03:12 76° NW
Cosmos 1833 4.5 20:02:21 49° WSW 20:03:40 64° WNW 20:09:17 10° NNE
Cosmos 2333 Rocket 2.5 19:58:37 10° NNW 20:04:11 55° WSW 20:04:29 54° WSW
Chandra Rocket (1) 4.0 19:51:54 10° W 20:07:14 42° SSW 20:07:14 42° SSW
Cosmos 1503 Rocket 4.2 20:08:23 10° NNW 20:12:49 66° NNW 20:12:49 66° NNW
Cosmos 2360 Rocket 2.2 20:08:38 10° NNW 20:13:59 77° WNW 20:13:59 77° WNW
Cosmos 2034 Rocket 4.0 20:13:54 69° SW 20:14:37 77° W 20:20:59 10° N
Cosmos 2333 4.3 20:18:34 10° NNW 20:23:47 73° NW 20:23:47 73° NW
Cosmos 2219 Rocket 2.4 20:21:25 10° NNW 20:26:24 67° N 20:26:24 67° N
Cosmos 540 Rocket 4.4 20:28:06 41° W 20:28:29 41° WNW 20:33:20 10° N
Cosmos 1354 Rocket 4.5 20:23:19 10° NNW 20:27:29 57° N 20:27:29 57° N
Cosmos 2279 Rocket 4.5 20:32:07 49° ENE 20:32:07 49° ENE 20:37:13 10° NNE
Cosmos 1634 Rocket 4.0 20:37:56 76° N 20:37:56 76° N 20:43:35 10° N
Aureole 1 Rocket 4.1 20:38:33 10° NNW 20:44:26 72° NE 20:44:26 72° NE
Cosmos 2322 Rocket 3.3 20:41:26 10° NW 20:45:49 36° W 20:45:49 36° W
NOSS 3-4 (A) 4.3 20:48:06 10° NW 20:55:05 52° WSW 20:55:06 52° WSW
NOSS 3-4 (C) 4.3 20:48:44 10° NW 20:55:45 53° WSW 20:55:45 53° WSW
Cosmos 2026 Rocket 4.4 20:51:13 10° NNW 20:57:08 56° W 20:57:08 56° W
USA 234 3.8 20:57:42 10° NE 21:02:17 47° ENE 21:02:17 47° ENE
Cosmos 2237 Rocket 4.0 21:01:03 10° N 21:05:18 21° NE 21:05:22 21° ENE
Cosmos 2227 Rocket 4.3 21:14:03 16° ENE 21:14:03 16° ENE 21:15:31 10° NE
COSMOS 2428 3.5 21:13:24 10° NNW 21:17:37 48° N 21:17:37 48° N
CZ-2C R/B 4.4 21:24:44 10° NNE 21:28:28 37° NE 21:28:28 37° NE
Cosmos 2297 Rocket 3.1 21:46:14 45° N 21:46:14 45° N 21:50:11 10° NNE
NOSS 0 Rocket 4.4 21:42:08 10° NNW 21:46:51 55° NNW 21:46:51 55° NNW
ATLAS 5 CENTAUR R/B 4.1 22:02:47 38° E 22:02:47 38° E 22:11:59 10° NE
ACS3 Solar Sail 3.1 21:58:45 10° NNE 22:02:41 29° ENE 22:02:41 29° ENE
CZ-2C R/B 3.8 22:39:09 36° NNW 22:39:09 36° NNW 22:42:15 10° NNW
SL-16 R/B 3.5 22:33:23 10° N 22:38:28 32° ENE 22:38:56 32° ENE
Cosmos 1553 Rocket 4.3 22:40:52 65° NE 22:40:52 65° NE 22:46:25 10° N
Lacrosse 4 Rocket 4.1 22:42:44 15° NNW 22:42:44 15° NNW 22:43:49 10° N
BREEZE-M DEB (TANK) 4.3 22:23:31 10° NW 22:41:15 79° NNE 22:41:47 74° E
SeaSat 1 3.7 22:42:55 37° NNE 22:42:55 37° NNE 22:46:33 10° N
USA 234 4.5 22:41:05 10° NNE 22:46:53 35° NNW 22:49:36 25° WNW
Cosmos 2237 Rocket 3.6 22:44:09 10° NNW 22:47:09 31° NW 22:47:09 31° NW
Cosmos 2227 Rocket 3.2 22:55:49 40° NW 22:55:49 40° NW 23:00:16 10° N
Cosmos 2263 Rocket 2.8 23:03:56 50° NNW 23:03:56 50° NNW 23:08:19 10° NNE
Cosmos 1125 Rocket 4.2 23:08:28 10° N 23:12:45 52° NNE 23:12:45 52° NNE
Cosmos 1745 Rocket 4.2 23:11:42 10° N 23:17:47 61° E 23:18:00 61° E
Resurs 1-4 Rocket 4.5 23:23:15 10° ENE 23:25:29 13° E 23:27:04 11° ESE
CENTAUR R/B 2.6 23:31:16 53° E 23:31:16 53° E 23:36:44 10° NE
Cosmos 1844 Rocket 3.4 23:33:40 43° E 23:33:40 43° E 23:38:43 10° NE
Cosmos 1417 Rocket 4.4 23:35:17 73° WNW 23:35:17 73° WNW 23:41:11 10° N
Nimbus 7 Rocket 4.3 23:31:27 10° NNE 23:37:30 89° ESE 23:37:30 89° ESE
Cosmos 2082 3.8 23:38:39 65° NNW 23:38:39 65° NNW 23:43:46 10° NNE
Cosmos 2208 Rocket 4.1 23:44:53 72° N 23:44:53 72° N 23:49:38 10° NNE
ACS3 Solar Sail 2.7 23:41:00 10° N 23:46:10 34° WNW 23:46:10 34° WNW
Cosmos 1953 4.1 23:45:07 10° N 23:46:58 27° NNE 23:46:58 27° NNE
Cosmos 1633 Rocket 4.1 23:45:47 10° N 23:49:40 40° ENE 23:49:40 40° ENE
IDEFIX/ARIANE 42P 2.6 23:47:46 10° N 23:52:42 76° NNW 23:52:42 76° NNW
H-2A R/B 4.2 23:51:56 10° NE 23:55:44 19° E 23:58:27 14° SE
